sat.trackr.live / text

‹ back to catalog

STARLINK-4508

NORAD 53559 · 2022-101AJ

PAYLOAD ACTIVE UNKNOWN

§ Identity

Operator
Country
US
Launch date
2022-08-19
Launch site
AFETR
Launch vehicle
Mass (kg)
RCS (m²)

Purposes: comms

External: N2YO · Heavens-Above · Gunter

§ Orbital elements

Epoch: 2026-05-25T02:35:34.823616Z

Period
90.08 min
Inclination
53.2182°
Eccentricity
0.0000419
Mean motion
15.98613240 rev/d
Perigee alt
278.0 km
Apogee alt
278.5 km
Semi-major
6,656.4 km
B*
2.6572e-3
RAAN
66.2844°
Arg perigee
92.9375°
Mean anomaly
267.1704°
Rev number
20,805

§ Raw data

STARLINK-45081 53559U 22101AJ  26145.10804194  .01272685  84242-3  26572-2 0  99962 53559  53.2182  66.2844 0000419  92.9375 267.1704 15.98613240208050

JSON: /api/v1/satellites/53559 · /tle

For live sub-satellite position, see the globe view (requires WebGL).

§ Visibility from observer

Set your observer location to see the next 7 days of passes ≥ 10°. The values pass through the URL so the page stays shareable.

No JS? Fill the form by hand. The geolocation button needs JavaScript.